Weather History for Rensselaer, IN

Change the Weather History Date:

Wednesday, February 8, 2012

  Actual Average (KVPZ) Record (KVPZ)
Temperature  
Mean Temperature 30 °F 26 °F  
Max Temperature 35 °F 33 °F 50 °F (2001)
Min Temperature 26 °F 18 °F -8 °F (2007)
Degree Days  
Heating Degree Days 34 39  
Month to date heating degree days 321  
Since 1 July heating degree days 4006  
Cooling Degree Days 0 0  
Month to date cooling degree days 0  
Year to date cooling degree days 0  
Moisture  
Dew Point 29 °F    
Average Humidity 89    
Maximum Humidity 100    
Minimum Humidity 75    
Precipitation  
Precipitation 0.00 in 0.05 in 0.42 in (2001)
Month to date precipitation 0.37  
Year to date precipitation 2.12  
Sea Level Pressure  
Sea Level Pressure 30.33 in    
Wind  
Wind Speed 5 mph (NW)    
Max Wind Speed 9 mph    
Max Gust Speed -    
Visibility 9 miles    
Events Snow    
T = Trace of Precipitation, MM = Missing Value Source: NWS Daily Summary

Daily Weather History Graph

Daily Weather History Graph

Search for Another Location

Airport:

Trip Planner

Search our weather history database for the weather conditions in past years. The results will help you decide how hot, cold, wet, or windy it might be!

Date:

Astronomy

Feb. 08, 2012 Rise Set
Actual Time 6:52 AM CST 5:14 PM CST
Civil Twilight 6:23 AM CST 5:42 PM CST
Nautical Twilight 5:51 AM CST 6:15 PM CST
Astronomical Twilight 5:19 AM CST 6:47 PM CST
Moon 6:34 PM CST (2/8) 6:54 AM CST (2/8)
Length of Visible Light 11h 19m
Length of Day
10h 21m
Full, 99% of the Moon is Illuminated
Feb 8
Full
Feb 14
Last Quarter
Feb 21
New
Feb 29
First Quarter
Mar 8
Full

Hourly Weather History & Observations

Time (CST) Temp. Windchill Dew Point Humidity Pressure Visibility Wind Dir Wind Speed Gust Speed Precip Events Conditions
12:15 AM 32.0 °F 26.4 °F 32.0 °F 100% 30.33 in 10.0 mi North 5.8 mph - N/A   Overcast
12:35 AM 32.0 °F 26.4 °F 32.0 °F 100% 30.33 in 10.0 mi North 5.8 mph - N/A   Overcast
12:55 AM 32.0 °F 25.6 °F 32.0 °F 100% 30.33 in 10.0 mi NNE 6.9 mph - N/A   Overcast
1:15 AM 32.0 °F 25.6 °F 32.0 °F 100% 30.32 in 7.0 mi NE 6.9 mph - N/A   Overcast
1:35 AM 32.0 °F 24.8 °F 32.0 °F 100% 30.32 in 3.0 mi NNE 8.1 mph - N/A Snow Light Snow
1:55 AM 32.0 °F 25.6 °F 32.0 °F 100% 30.32 in 3.0 mi North 6.9 mph - N/A Snow Light Snow
2:15 AM 32.0 °F 26.4 °F 32.0 °F 100% 30.32 in 4.0 mi North 5.8 mph - N/A Snow Light Snow
2:55 AM 32.0 °F 26.4 °F 32.0 °F 100% 30.32 in 3.0 mi North 5.8 mph - N/A Snow Light Snow
3:35 AM 32.0 °F 26.4 °F 32.0 °F 100% 30.32 in 5.0 mi North 5.8 mph - N/A Snow Light Snow
3:55 AM 32.0 °F 25.6 °F 32.0 °F 100% 30.32 in 5.0 mi NNE 6.9 mph - N/A Snow Light Snow
4:15 AM 32.0 °F 26.4 °F 30.2 °F 93% 30.32 in 7.0 mi NNE 5.8 mph - N/A   Overcast
4:35 AM 32.0 °F 25.6 °F 30.2 °F 93% 30.33 in 4.0 mi North 6.9 mph - N/A Snow Light Snow
4:55 AM 32.0 °F 26.4 °F 30.2 °F 93% 30.33 in 3.0 mi North 5.8 mph - N/A Snow Light Snow
5:15 AM 32.0 °F 25.6 °F 30.2 °F 93% 30.33 in 4.0 mi North 6.9 mph - N/A Snow Light Snow
5:35 AM 32.0 °F 28.7 °F 30.2 °F 93% 30.33 in 7.0 mi North 3.5 mph - N/A   Overcast
5:55 AM 32.0 °F 28.7 °F 30.2 °F 93% 30.34 in 10.0 mi North 3.5 mph - N/A   Overcast
6:35 AM 32.0 °F - 30.2 °F 93% 30.34 in 10.0 mi Calm Calm - N/A   Overcast
6:55 AM 32.0 °F - 30.2 °F 93% 30.34 in 10.0 mi Calm Calm - N/A   Overcast
7:15 AM 32.0 °F - 30.2 °F 93% 30.34 in 10.0 mi Calm Calm - N/A   Overcast
7:35 AM 32.0 °F - 30.2 °F 93% 30.35 in 10.0 mi Calm Calm - N/A   Overcast
7:55 AM 32.0 °F - 30.2 °F 93% 30.35 in 7.0 mi Calm Calm - N/A   Overcast
8:15 AM 32.0 °F - 30.2 °F 93% 30.35 in 10.0 mi Calm Calm - N/A   Overcast
8:35 AM 32.0 °F 28.7 °F 30.2 °F 93% 30.35 in 7.0 mi North 3.5 mph - N/A   Overcast
8:55 AM 32.0 °F 28.7 °F 30.2 °F 93% 30.35 in 7.0 mi NNE 3.5 mph - N/A   Overcast
9:15 AM 32.0 °F - 30.2 °F 93% 30.36 in 10.0 mi Calm Calm - N/A   Overcast
9:35 AM 32.0 °F - 30.2 °F 93% 30.36 in 10.0 mi Calm Calm - N/A   Overcast
9:55 AM 32.0 °F - 30.2 °F 93% 30.36 in 10.0 mi Calm Calm - N/A   Overcast
10:15 AM 32.0 °F 26.4 °F 30.2 °F 93% 30.36 in 10.0 mi West 5.8 mph - N/A   Overcast
10:35 AM 32.0 °F - 30.2 °F 93% 30.36 in 10.0 mi Calm Calm - N/A   Overcast
10:55 AM 33.8 °F 30.8 °F 32.0 °F 93% 30.36 in 10.0 mi North 3.5 mph - N/A   Overcast
11:15 AM 32.0 °F 27.5 °F 30.2 °F 93% 30.36 in 10.0 mi NNW 4.6 mph - N/A   Overcast
11:35 AM 33.8 °F 27.0 °F 30.2 °F 87% 30.35 in 10.0 mi North 8.1 mph - N/A   Overcast
11:55 AM 33.8 °F 27.7 °F 30.2 °F 87% 30.35 in 10.0 mi North 6.9 mph - N/A   Overcast
12:15 PM 33.8 °F 28.6 °F 30.2 °F 87% 30.34 in 10.0 mi NNW 5.8 mph - N/A   Overcast
12:35 PM 33.8 °F 28.6 °F 28.4 °F 81% 30.34 in 10.0 mi NNW 5.8 mph - N/A   Overcast
12:55 PM 33.8 °F 28.6 °F 28.4 °F 81% 30.33 in 10.0 mi NW 5.8 mph - N/A   Overcast
1:15 PM 33.8 °F 27.7 °F 28.4 °F 81% 30.32 in 10.0 mi NW 6.9 mph - N/A   Overcast
1:35 PM 33.8 °F 27.7 °F 28.4 °F 81% 30.31 in 10.0 mi NNW 6.9 mph - N/A   Overcast
1:55 PM 35.6 °F 29.9 °F 28.4 °F 75% 30.31 in 10.0 mi WNW 6.9 mph - N/A   Overcast
2:15 PM 33.8 °F 26.4 °F 28.4 °F 81% 30.31 in 10.0 mi NW 9.2 mph - N/A   Overcast
2:35 PM 33.8 °F 27.0 °F 28.4 °F 81% 30.31 in 10.0 mi NW 8.1 mph - N/A   Mostly Cloudy
2:55 PM 33.8 °F 26.4 °F 28.4 °F 81% 30.31 in 10.0 mi NW 9.2 mph - N/A   Overcast
3:55 PM 33.8 °F 27.0 °F 26.6 °F 75% 30.31 in 10.0 mi WNW 8.1 mph - N/A   Overcast
4:15 PM 32.0 °F 26.4 °F 26.6 °F 80% 30.32 in 10.0 mi WNW 5.8 mph - N/A   Overcast
4:55 PM 32.0 °F 25.6 °F 28.4 °F 87% 30.31 in 10.0 mi West 6.9 mph - N/A   Overcast
5:15 PM 32.0 °F 25.6 °F 28.4 °F 87% 30.31 in 10.0 mi West 6.9 mph - N/A   Overcast
5:35 PM 32.0 °F 24.8 °F 28.4 °F 87% 30.31 in 10.0 mi West 8.1 mph - N/A   Overcast
5:55 PM 32.0 °F 26.4 °F 26.6 °F 80% 30.32 in 10.0 mi West 5.8 mph - N/A   Mostly Cloudy
6:15 PM 32.0 °F 26.4 °F 26.6 °F 80% 30.32 in 10.0 mi WSW 5.8 mph - N/A   Scattered Clouds
6:55 PM 30.2 °F 24.3 °F 26.6 °F 86% 30.33 in 10.0 mi West 5.8 mph - N/A   Clear
7:15 PM 30.2 °F 24.3 °F 26.6 °F 86% 30.32 in 10.0 mi West 5.8 mph - N/A   Clear
7:35 PM 28.4 °F 23.3 °F 26.6 °F 93% 30.33 in 10.0 mi West 4.6 mph - N/A   Clear
7:55 PM 28.4 °F 22.2 °F 26.6 °F 93% 30.33 in 10.0 mi West 5.8 mph - N/A   Clear
8:15 PM 28.4 °F 21.2 °F 24.8 °F 86% 30.33 in 10.0 mi West 6.9 mph - N/A   Clear
8:35 PM 28.4 °F 20.4 °F 26.6 °F 93% 30.34 in 10.0 mi West 8.1 mph - N/A   Clear
8:55 PM 28.4 °F 21.2 °F 24.8 °F 86% 30.33 in 10.0 mi West 6.9 mph - N/A   Clear
9:15 PM 28.4 °F 20.4 °F 24.8 °F 86% 30.33 in 10.0 mi WSW 8.1 mph - N/A   Clear
9:35 PM 28.4 °F 21.2 °F 24.8 °F 86% 30.34 in 10.0 mi West 6.9 mph - N/A   Clear
9:55 PM 28.4 °F 21.2 °F 23.0 °F 80% 30.34 in 10.0 mi West 6.9 mph - N/A   Clear
10:15 PM 26.6 °F 19.1 °F 23.0 °F 86% 30.33 in 10.0 mi WSW 6.9 mph - N/A   Clear
10:55 PM 26.6 °F 19.1 °F 23.0 °F 86% 30.33 in 10.0 mi WSW 6.9 mph - N/A   Clear
11:15 PM 26.6 °F 19.1 °F 23.0 °F 86% 30.33 in 10.0 mi WSW 6.9 mph - N/A   Clear
11:35 PM 26.6 °F 19.1 °F 23.0 °F 86% 30.33 in 10.0 mi WSW 6.9 mph - N/A   Clear
11:55 PM 26.6 °F 19.1 °F 23.0 °F 86% 30.33 in 10.0 mi WSW 6.9 mph - N/A   Clear